Location: Lane
(33.5226°N, 79.8788°W)
Time: 12:11:54
(UTC+00:00)

Tiros 1 despin weight - Pass Details

Date: 09 October 2022
Orbit: 590 x 637 km, 48.2° (Epoch: 25 November)

Event Time Altitude Azimuth Distance (km) Brightness Sun altitude
Rises 16:27:02 0° 189° (S) 2,799 ? 48.9°
Reaches altitude 10° 16:30:04 10° 167° (SSE) 1,904 ? 49.1°
Maximum altitude 16:32:42 16° 129° (SE) 1,567 ? 49.2°
Drops below altitude 10° 16:35:21 10° 92° (E) 1,918 ? 49.4°
Sets 16:38:24 0° 70° (ENE) 2,830 ? 49.5°
